Location: Fyfield
(51.2167°N, 1.5833°W)
Time: 12:13:37
(UTC+00:00)

Daily predictions for brighter satellites

Satellite Brightness Start Highest point End
(mag) Time Altitude Azimuth Time Altitude Azimuth Time Altitude Azimuth
USA 276 2.4 20:31:53 10° W 20:34:59 53° SSW 20:38:04 10° ESE
NOSS 3-4 (A) 4.1 20:30:10 10° WSW 20:36:02 61° NW 20:42:28 10° NE
NOSS 3-4 (C) 4.1 20:30:17 10° WSW 20:36:08 61° NW 20:42:34 10° NE
BREEZE-M DEB (TANK) 2.7 20:33:40 10° W 20:36:17 44° SSW 20:41:59 10° ESE
Cosmos 1697 Rocket 4.3 20:32:46 10° NW 20:37:46 33° WSW 20:42:44 10° SSW
SPOT 1/Viking Rocket 3.7 20:32:42 10° SSE 20:37:50 62° ENE 20:43:00 10° N
Cosmos 1076 Rocket 3.5 20:34:59 10° S 20:39:17 70° E 20:43:40 10° NNE
Cosmos 1151 Rocket 4.3 20:35:49 10° N 20:39:33 27° ENE 20:43:17 10° SE
SAR-Lupe-4 4.2 20:36:03 10° N 20:39:38 61° WNW 20:43:09 10° SSW
ATLAS 5 CENTAUR R/B 3.9 20:36:01 10° NW 20:39:58 24° NNE 20:44:28 10° ENE
OBJECT-B 3.6 20:40:08 10° SW 20:42:18 17° W 20:44:30 10° NW
ATLAS 2AS CENTAUR R/B 3.2 20:36:55 10° SW 20:44:52 86° NW 20:52:35 10° NE
Cosmos 773 Rocket 4.3 20:42:39 10° SSW 20:47:51 76° WNW 20:53:03 10° NNE
ATLAS 3B R/B 3.2 20:41:44 10° NW 20:48:41 63° SW 20:55:55 10° SSE
Cosmos 1833 Rocket 3.7 20:44:28 10° SW 20:49:58 52° NW 20:55:30 10° NNE
Terra 3.0 20:48:15 10° ESE 20:52:21 30° ENE 20:56:29 10° N
SPOT 5 3.4 20:50:55 10° SE 20:54:55 38° ENE 20:59:00 10° N
Cosmos 2082 Rocket 2.4 20:50:55 10° SSW 20:56:33 81° WNW 21:02:17 10° NNE
Cosmos 2056 Rocket 4.4 20:52:15 10° NNW 20:57:17 38° NE 21:02:09 10° ESE
Cosmos 1092 Rocket 4.2 20:51:17 10° S 20:57:22 58° E 21:03:34 10° NNE
Meteor 2-19 Rocket 4.5 20:51:29 10° S 20:57:27 64° E 21:03:27 10° NNE
Cosmos 2278 4.5 20:52:23 10° NW 20:57:50 50° WSW 21:03:17 10° S
Cosmos 1633 3.0 20:55:03 10° SSW 20:58:37 65° WNW 21:02:14 10° N
BREEZE-M DEB (TANK) 2.2 20:58:54 10° WSW 21:01:30 38° S 21:03:12 11° E
Cosmos 332 Rocket 4.0 20:59:01 10° NNW 21:03:55 77° WSW 21:08:48 10° SSE
Cosmos 1606 4.4 21:01:24 10° NNW 21:04:48 32° W 21:08:12 10° SSW
Cosmos 2360 Rocket 2.9 20:59:37 10° NNW 21:04:59 42° NE 21:10:08 11° ESE
ERS-1 Rocket 3.4 21:00:35 11° SE 21:05:20 51° ENE 21:10:13 10° N
Cosmos 158 Rocket 4.0 21:03:09 10° S 21:08:16 66° ESE 21:13:33 10° NNE
ATLAS CENTAUR R/B 4.5 21:03:10 10° WNW 21:09:42 67° NNE 21:27:36 10° ESE
Cosmos 2026 Rocket 4.2 21:04:10 10° S 21:10:20 58° E 21:16:29 10° NNE
GP-B 3.2 21:07:23 10° N 21:11:48 59° E 21:16:11 10° SSE
ISS -2.2 21:10:53 10° W 21:13:41 24° SW 21:15:56 13° SSE
Cosmos 2333 Rocket 3.5 21:10:22 10° NNW 21:15:21 30° NE 21:20:19 10° ESE
Nadezhda 4 Rocket 4.4 21:11:47 10° SSW 21:17:55 69° WNW 21:24:12 10° N
Meteor 1-26 Rocket 4.4 21:12:00 10° NNW 21:18:02 89° SW 21:23:51 10° S
Cosmos 1371 Rocket 4.4 21:13:38 10° NNW 21:18:57 57° ENE 21:23:22 15° SE
Spot 2 Rocket 3.5 21:14:48 10° SSE 21:19:55 90° ESE 21:25:04 10° NNW
Cosmos 1812 3.4 21:16:42 10° N 21:20:23 40° ENE 21:23:04 16° SE
SPOT 3 Rocket 4.4 21:15:45 10° S 21:20:48 49° W 21:25:53 10° NNW
Cosmos 220 Rocket 4.2 21:18:10 10° NNW 21:22:28 62° ENE 21:25:50 16° SE
Cosmos 1680 Rocket 3.9 21:18:34 10° S 21:23:32 44° ESE 21:28:31 10° NE
CZ-2C R/B 3.6 21:19:22 10° NNE 21:23:57 85° ESE 21:28:25 10° SSW
Cosmos 1980 Rocket 3.9 21:21:24 10° NW 21:26:00 26° WSW 21:30:36 10° SSW
Okean 3 Rocket 3.9 21:24:58 13° SSE 21:28:48 49° E 21:33:10 10° NNE
RESURS DK-1 3.9 21:25:01 10° WSW 21:28:57 39° NW 21:32:54 10° NNE
USA 245 4.2 21:25:35 10° S 21:30:34 58° WSW 21:34:38 10° NNW
USA 234 3.7 21:24:57 10° E 21:31:24 61° NNE 21:37:51 10° WNW
Cosmos 2237 Rocket 4.4 21:31:40 10° N 21:35:24 17° NNE 21:39:08 10° ENE
Cosmos 1933 4.3 21:32:17 10° NNW 21:36:10 44° W 21:40:00 10° SSW
Cosmos 2322 Rocket 2.2 21:31:42 10° NNW 21:37:23 82° WSW 21:41:46 17° SSE
Cosmos 1428 Rocket 4.5 21:33:34 10° S 21:39:44 90° WNW 21:45:53 10° N
Resurs 01 Rocket 3.8 21:38:41 10° SW 21:42:13 23° W 21:45:45 10° NW
Cosmos 1408 Rocket 4.3 21:40:12 19° SSE 21:42:42 36° E 21:46:42 10° NNE
Cosmos 2151 4.1 21:39:58 10° SSW 21:44:03 45° WNW 21:48:11 10° N
Gblst 52 Del rocket 4.5 21:41:51 10° W 21:47:49 88° N 21:54:42 10° E
CARTOSAT-1 4.4 21:46:36 11° S 21:50:31 46° W 21:54:42 10° NNW
Cosmos 1553 Rocket 3.9 21:44:38 10° N 21:50:46 86° E 21:55:36 17° S
Cosmos 2084 3.9 21:48:52 15° S 21:51:46 35° SE 21:55:36 10° ENE
Gbstr 26 Del rocket 3.8 21:50:28 10° W 21:53:48 30° SSW 21:55:26 22° S
CZ-4B DEB 4.2 21:53:29 29° SSE 21:54:57 69° ENE 21:58:06 10° N
Meteor 2-3 Rocket 4.3 21:49:29 10° SSW 21:55:06 61° WNW 22:00:48 10° N
Cosmos 2266 Rocket 4.5 21:53:29 19° SSE 21:57:26 43° E 22:03:16 10° NNE
Cosmos 2219 Rocket 2.9 21:53:33 10° NNW 21:58:56 45° NE 22:02:58 17° ESE
Cosmos 1862 3.4 21:57:03 23° S 21:59:25 61° E 22:03:22 10° NNE
Cosmos 1624 Rocket 4.0 21:54:16 10° NNW 21:59:30 81° WSW 22:02:57 22° SSE
Cosmos 1782 4.0 21:58:37 10° NNW 22:02:22 38° W 22:05:38 13° SSW
Cosmos 2228 Rocket 4.1 21:59:52 10° N 22:03:55 34° ENE 22:06:05 22° ESE
Cosmos 1515 Rocket 3.5 21:59:44 10° N 22:04:13 76° E 22:06:43 25° SSE
H-2A R/B 3.8 22:01:08 10° NNE 22:05:13 47° E 22:07:15 26° SSE
SL-16 R/B 3.1 22:00:25 10° NW 22:05:45 42° WSW 22:09:55 16° S
NOSS 2-1 (E) 3.4 22:05:22 33° SSE 22:05:53 35° SE 22:09:04 10° ENE
NOSS 3-1 (C) 4.1 22:00:39 10° NW 22:07:53 80° NE 22:14:29 18° SE
ARIANE 5 R/B 3.7 22:04:24 13° SSW 22:08:05 39° W 22:12:16 10° NNW
Cosmos 2333 4.3 22:03:02 10° NNW 22:08:39 67° ENE 22:12:13 23° SE
Cosmos 2237 4.5 22:04:24 10° NW 22:10:03 63° WSW 22:13:45 22° S
Cosmos 1420 Rocket 4.0 22:05:08 10° NNW 22:10:31 86° ENE 22:13:43 25° SSE
USA 276 3.9 22:08:30 10° WSW 22:10:44 18° SSW 22:10:46 18° SSW
COSMOS 2455 3.8 22:09:10 22° SE 22:11:20 28° ESE 22:16:21 10° NE
COSMOS 2428 3.4 22:08:10 10° NNW 22:13:42 47° NE 22:17:35 19° ESE
Meteor 2-6 Rocket 4.3 22:09:46 10° NNW 22:15:10 68° W 22:18:53 20° S
CZ-4C R/B 4.5 22:09:54 10° NW 22:15:16 29° N 22:21:33 10° ENE
Cosmos 1151 Rocket 4.2 22:13:10 10° NNW 22:17:12 37° W 22:20:31 14° SSW
Cosmos 1655 Rocket 4.1 22:12:44 20° S 22:17:12 66° E 22:23:33 10° NNE
Cosmos 1766 Rocket 4.2 22:14:49 11° SSW 22:19:01 54° WNW 22:23:20 10° N
S3M 4.1 22:14:37 10° N 22:21:03 85° W 22:25:25 22° S
Cosmos 1328 Rocket 4.5 22:17:27 10° NNW 22:21:42 44° W 22:24:43 18° SSW
USA 229 DEB 4.1 22:14:56 10° NW 22:22:06 68° NE 22:28:16 17° ESE
USA 229 4.1 22:15:01 10° NW 22:22:12 68° NE 22:28:23 17° ESE
ATLAS 5 CENTAUR R/B 2.8 22:20:31 10° NW 22:25:37 52° NE 22:30:39 15° ESE
Cosmos 1174 3.0 22:22:53 10° NW 22:25:55 70° SW 22:26:29 51° S
Terra 2.7 22:26:49 19° SSW 22:29:58 43° W 22:34:32 10° NNW
Cosmos 1452 Rocket 3.6 22:24:46 10° NNW 22:30:02 69° ENE 22:32:49 28° SE
COSMOS 2487 3.6 22:31:49 26° E 22:31:49 26° E 22:34:30 10° NE
SPOT 5 4.2 22:30:02 13° SSW 22:33:08 28° W 22:36:55 10° NW
ALOS 2 3.8 22:33:57 22° ESE 22:35:57 32° ENE 22:39:53 10° N
ATLAS 2AS CENTAUR R/B 4.4 22:29:30 10° W 22:36:48 40° NNW 22:43:48 10° NE
USA 267 3.4 22:32:15 10° ENE 22:38:32 47° SE 22:44:48 10° SSW
Cosmos 2056 Rocket 4.4 22:34:28 10° NW 22:39:30 41° WSW 22:42:28 22° SSW
Meteor 1-27 Rocket 3.7 22:35:29 10° NNW 22:41:08 86° W 22:44:15 29° S
SL-27 R/B 2.7 22:39:50 26° SW 22:41:43 71° WNW 22:45:20 10° NNE
NOSS 3-1 (A) 4.1 22:35:20 10° NW 22:42:35 81° NE 22:48:48 20° SE
Cosmos 2360 Rocket 3.0 22:43:45 10° NW 22:49:01 42° WSW 22:51:53 24° SSW
IRIDIUM 104 4.3 22:44:31 10° N 22:49:48 87° E 22:52:18 32° S
NOSS 2-1 (C) 2.9 22:48:04 20° SW 22:50:11 76° NW 22:53:42 10° NE
Cosmos 1805 Rocket 3.8 22:49:13 37° SSE 22:50:40 56° E 22:55:02 10° NNE
Cosmos 1110 Rocket 4.3 22:50:46 10° NNW 22:56:05 62° ENE 22:58:40 30° SE
Meteor 1-20 Rocket 4.5 22:54:51 32° SSE 22:57:13 53° E 23:02:45 10° NNE
NOSS 2-1 (D) 3.2 22:55:30 17° WSW 22:57:54 64° NW 23:01:25 10° NE
IRIDIUM 114 4.3 22:53:41 10° N 22:58:55 80° W 23:01:25 32° S
Cosmos 2333 Rocket 2.3 22:54:28 10° NW 23:00:05 66° WSW 23:02:38 33° S
Cosmos 1833 4.3 22:56:03 15° SSW 23:00:53 84° WNW 23:06:43 10° NNE
Cosmos 1331 Rocket 4.2 22:56:17 10° NNW 23:01:31 62° ENE 23:03:58 31° SE
Cosmos 1500 Rocket 3.8 22:59:40 30° SSW 23:01:48 68° WNW 23:06:15 10° N
IRIDIUM 103 4.5 23:02:52 10° N 23:08:04 68° W 23:10:34 31° SSW
Cosmos 972 Rocket 3.9 23:07:28 31° SSW 23:10:04 82° ESE 23:15:05 10° NNE
Cosmos 2322 4.0 23:04:39 10° NW 23:10:17 59° WSW 23:12:44 33° S
COBE Rocket 3.9 23:09:07 36° S 23:10:53 65° W 23:15:34 10° NNW
NOSS 0 Rocket 4.0 23:06:18 10° NNW 23:12:34 73° NE 23:16:01 28° SE
USA 234 3.2 23:10:02 23° SE 23:14:22 76° SW 23:20:57 10° WNW
Cosmos 468 4.5 23:16:08 37° S 23:18:07 66° ESE 23:23:19 10° NNE
Cosmos 2297 Rocket 3.6 23:17:11 20° ESE 23:18:13 22° ESE 23:22:25 10° NE
Cosmos 2322 Rocket 4.3 23:17:22 10° WNW 23:20:32 15° W 23:23:35 10° SW
Lacrosse 5 3.7 23:21:59 16° ESE 23:21:59 16° ESE 23:24:04 10° E
Cosmos 2237 Rocket 2.7 23:15:09 10° NNW 23:20:46 56° NE 23:24:02 25° ESE
Cosmos 1743 Rocket 4.4 23:19:29 24° SW 23:21:50 46° WNW 23:26:07 10° N
Cosmos 2084 Rocket 3.8 23:18:03 10° NW 23:22:11 61° NE 23:24:07 30° ESE
Meteor 1-18 Rocket 4.3 23:18:29 10° N 23:24:23 73° ENE 23:26:56 35° SSE
Cosmos 1500 3.6 23:26:57 44° ESE 23:27:20 46° E 23:31:03 10° NNE
Cosmos 2285 Rocket 4.3 23:23:38 10° NNW 23:29:46 55° WSW 23:32:33 32° SSW
Cosmos 2227 Rocket 3.7 23:28:53 19° ESE 23:29:59 20° E 23:33:58 10° NE
Sich 1 3.0 23:28:46 43° SSW 23:30:09 77° W 23:34:31 10° N
Okean 1 3.2 23:26:56 10° N 23:30:59 87° W 23:31:46 57° S
Meteor 1-25 Rocket 4.1 23:30:16 35° S 23:32:46 90° E 23:38:23 10° NNE
Cosmos 1633 Rocket 3.2 23:33:06 47° SE 23:34:03 59° E 23:38:21 10° NNE
Cosmos 494 Rocket 3.9 23:33:17 40° S 23:35:04 73° ESE 23:40:13 10° NNE
Cosmos 1666 Rocket 3.5 23:37:07 50° S 23:38:13 78° E 23:42:41 10° NNE
Cosmos 1048 Rocket 3.9 23:39:39 33° SSW 23:41:59 81° WNW 23:47:08 10° NNE
Cosmos 2228 Rocket 4.4 23:38:13 10° NNW 23:42:03 30° W 23:43:34 24° SW
Cosmos 2219 Rocket 2.9 23:37:41 10° NW 23:42:51 39° WSW 23:44:40 30° SSW
Cosmos 489 Rocket 4.5 23:43:32 29° SSW 23:47:00 87° WNW 23:53:25 10° NNE
Meteor 1-19 Rocket 4.3 23:41:48 10° NNW 23:47:26 67° W 23:49:32 38° SSW
NOSS 2-2 (C) 4.3 23:42:39 10° NW 23:47:37 76° NE 23:52:23 20° SE
SL-16 R/B 3.4 23:42:39 10° NNW 23:47:57 38° NE 23:52:42 12° ESE
SL-08 R/B 4.4 23:45:16 36° S 23:48:01 77° E 23:54:11 10° NNE
Cosmos 1602 4.2 23:52:57 42° WSW 23:53:50 52° WNW 23:57:37 10° N
